Falconia — H3QI — position and weather

sailwx.info

Track history (hours):
 
Tides and Currents Weather Stations Pressure Air Temp Water Temp Dewpoint Dewpoint Depression Visibility Wind Speed Wind Dir Waves Ship Positions

Falconia

Last reported at 2016-Jul-28 20:15 UTC. Time now 2016-Jul-29 12:08 UTC.
Position N 01°26' E 103°54'.

Length 88 m; draft 3.8 m.

Type: Cargo ship. MMSI: 353620000.

Date/timePositionNaut miles runAvg speedWind from/ knotsBaromVisibWave heightAir tempDewpointWater temp
2016-Jul-28 20:15N 01°26' E 103°54'0 0.0
2016-Jul-28 15:09N 01°26' E 103°54'2 0.3
2016-Jul-28 09:33N 01°25' E 103°56'10 8.4
2016-Jul-28 08:20N 01°20' E 104°05'  
2016-Jul-22 14:33N 22°08' E 113°48'3610.8
2016-Jul-22 11:15N 22°43' E 113°41'911.7
2016-Jul-22 10:30N 22°50' E 113°35'10 9.9
2016-Jul-22 09:32N 22°59' E 113°31'8 8.5
2016-Jul-22 08:33N 23°05' E 113°26'1 1.0
2016-Jul-22 07:26N 23°05' E 113°25'0 0.0
2016-Jul-22 04:26N 23°05' E 113°25'0 0.0
2016-Jul-22 03:14N 23°05' E 113°25'0 0.3
2016-Jul-22 02:26N 23°05' E 113°25'0 0.2
2016-Jul-22 01:32N 23°05' E 113°25'0 0.0
2016-Jul-22 00:32N 23°05' E 113°25'0 0.0
2016-Jul-21 23:32N 23°05' E 113°25'0 0.0
2016-Jul-21 22:32N 23°05' E 113°25'0 0.0
2016-Jul-21 21:32N 23°05' E 113°25'0 0.0
2016-Jul-21 20:32N 23°05' E 113°25'0 0.0
2016-Jul-21 19:32N 23°05' E 113°25'0 0.0
2016-Jul-21 18:32N 23°05' E 113°25'0 0.0
2016-Jul-21 17:32N 23°05' E 113°25'0 0.0
2016-Jul-21 15:20N 23°05' E 113°25'0 0.0
2016-Jul-21 13:20N 23°05' E 113°25'0 0.0
2016-Jul-21 12:31N 23°05' E 113°25'0 0.0
2016-Jul-21 11:13N 23°05' E 113°25'0 0.0
2016-Jul-21 09:19N 23°05' E 113°25'0 0.0
2016-Jul-21 07:13N 23°05' E 113°25'0 0.0
2016-Jul-21 04:19N 23°05' E 113°25'0 0.0
2016-Jul-21 03:07N 23°05' E 113°25'0 0.0
2016-Jul-21 02:30N 23°05' E 113°25'0 0.0
2016-Jul-21 01:30N 23°05' E 113°25'0 0.0
2016-Jul-21 00:24N 23°05' E 113°25'0 0.0
2016-Jul-20 23:12N 23°05' E 113°25'0 0.0
2016-Jul-20 22:12N 23°05' E 113°25'0 0.0
2016-Jul-20 21:18N 23°05' E 113°25'0 0.0
2016-Jul-20 20:30N 23°05' E 113°25'0 0.0
2016-Jul-20 19:18N 23°05' E 113°25'0 0.0
2016-Jul-20 18:30N 23°05' E 113°25'0 0.0
2016-Jul-20 17:30N 23°05' E 113°25'0 0.0
2016-Jul-20 16:30N 23°05' E 113°25'0 0.0
2016-Jul-20 15:30N 23°05' E 113°25'0 0.0
2016-Jul-20 14:24N 23°05' E 113°25'0 0.0
2016-Jul-20 13:30N 23°05' E 113°25'0 0.0
2016-Jul-20 12:30N 23°05' E 113°25'0 0.0
2016-Jul-20 11:18N 23°05' E 113°25'0 0.0
2016-Jul-20 10:12N 23°05' E 113°25'0 0.0
2016-Jul-20 09:18N 23°05' E 113°25'0 0.0
2016-Jul-20 08:24N 23°05' E 113°25'0 0.0
2016-Jul-20 05:30N 23°05' E 113°25'0 0.0
2016-Jul-20 04:24N 23°05' E 113°25'0 0.0
2016-Jul-20 03:30N 23°05' E 113°25'0 0.0
2016-Jul-20 01:30N 23°05' E 113°25'0 0.0
2016-Jul-20 00:18N 23°05' E 113°25'0 0.0
2016-Jul-19 23:12N 23°05' E 113°25'0 0.0
2016-Jul-19 22:24N 23°05' E 113°25'0 0.0
2016-Jul-19 21:12N 23°05' E 113°25'0 0.0
2016-Jul-19 20:24N 23°05' E 113°25'0 0.0
2016-Jul-19 18:30N 23°05' E 113°25'0 0.0
2016-Jul-19 16:30N 23°05' E 113°25'0 0.0
2016-Jul-19 12:30N 23°05' E 113°25'0 0.0
2016-Jul-19 11:24N 23°05' E 113°25'0 0.0
2016-Jul-19 10:24N 23°05' E 113°25'0 0.0
2016-Jul-19 09:17N 23°05' E 113°25'0 0.0
2016-Jul-19 08:17N 23°05' E 113°25'0 0.0
2016-Jul-19 04:23N 23°05' E 113°25'0 0.0
2016-Jul-19 03:29N 23°05' E 113°25'0 0.0
2016-Jul-19 02:29N 23°05' E 113°25'0 0.0
2016-Jul-19 01:23N 23°05' E 113°25'0 0.0
2016-Jul-19 00:23N 23°05' E 113°25'0 0.0
2016-Jul-18 23:23N 23°05' E 113°25'0 0.0
2016-Jul-18 22:11N 23°05' E 113°25'0 0.0
2016-Jul-18 21:29N 23°05' E 113°25'0 0.0
2016-Jul-18 20:23N 23°05' E 113°25'  
Track history (hours):
 
Tides and Currents Weather Stations Pressure Air Temp Water Temp Dewpoint Dewpoint Depression Visibility Wind Speed Wind Dir Waves Ship Positions

Falconia

Last reported at 2016-Jul-28 20:15 UTC. Time now 2016-Jul-29 12:08 UTC.
Position N 01°26' E 103°54'.

Length 88 m; draft 3.8 m.

Type: Cargo ship. MMSI: 353620000.

Date/timePositionNaut miles runAvg speedWind from/ knotsBaromVisibWave heightAir tempDewpointWater temp
2016-Jul-28 20:15N 01°26' E 103°54'0 0.0
2016-Jul-28 15:09N 01°26' E 103°54'2 0.3
2016-Jul-28 09:33N 01°25' E 103°56'10 8.4
2016-Jul-28 08:20N 01°20' E 104°05'  
2016-Jul-22 14:33N 22°08' E 113°48'3610.8
2016-Jul-22 11:15N 22°43' E 113°41'911.7
2016-Jul-22 10:30N 22°50' E 113°35'10 9.9
2016-Jul-22 09:32N 22°59' E 113°31'8 8.5
2016-Jul-22 08:33N 23°05' E 113°26'1 1.0
2016-Jul-22 07:26N 23°05' E 113°25'0 0.0
2016-Jul-22 04:26N 23°05' E 113°25'0 0.0
2016-Jul-22 03:14N 23°05' E 113°25'0 0.3
2016-Jul-22 02:26N 23°05' E 113°25'0 0.2
2016-Jul-22 01:32N 23°05' E 113°25'0 0.0
2016-Jul-22 00:32N 23°05' E 113°25'0 0.0
2016-Jul-21 23:32N 23°05' E 113°25'0 0.0
2016-Jul-21 22:32N 23°05' E 113°25'0 0.0
2016-Jul-21 21:32N 23°05' E 113°25'0 0.0
2016-Jul-21 20:32N 23°05' E 113°25'0 0.0
2016-Jul-21 19:32N 23°05' E 113°25'0 0.0
2016-Jul-21 18:32N 23°05' E 113°25'0 0.0
2016-Jul-21 17:32N 23°05' E 113°25'0 0.0
2016-Jul-21 15:20N 23°05' E 113°25'0 0.0
2016-Jul-21 13:20N 23°05' E 113°25'0 0.0
2016-Jul-21 12:31N 23°05' E 113°25'0 0.0
2016-Jul-21 11:13N 23°05' E 113°25'0 0.0
2016-Jul-21 09:19N 23°05' E 113°25'0 0.0
2016-Jul-21 07:13N 23°05' E 113°25'0 0.0
2016-Jul-21 04:19N 23°05' E 113°25'0 0.0
2016-Jul-21 03:07N 23°05' E 113°25'0 0.0
2016-Jul-21 02:30N 23°05' E 113°25'0 0.0
2016-Jul-21 01:30N 23°05' E 113°25'0 0.0
2016-Jul-21 00:24N 23°05' E 113°25'0 0.0
2016-Jul-20 23:12N 23°05' E 113°25'0 0.0
2016-Jul-20 22:12N 23°05' E 113°25'0 0.0
2016-Jul-20 21:18N 23°05' E 113°25'0 0.0
2016-Jul-20 20:30N 23°05' E 113°25'0 0.0
2016-Jul-20 19:18N 23°05' E 113°25'0 0.0
2016-Jul-20 18:30N 23°05' E 113°25'0 0.0
2016-Jul-20 17:30N 23°05' E 113°25'0 0.0
2016-Jul-20 16:30N 23°05' E 113°25'0 0.0
2016-Jul-20 15:30N 23°05' E 113°25'0 0.0
2016-Jul-20 14:24N 23°05' E 113°25'0 0.0
2016-Jul-20 13:30N 23°05' E 113°25'0 0.0
2016-Jul-20 12:30N 23°05' E 113°25'0 0.0
2016-Jul-20 11:18N 23°05' E 113°25'0 0.0
2016-Jul-20 10:12N 23°05' E 113°25'0 0.0
2016-Jul-20 09:18N 23°05' E 113°25'0 0.0
2016-Jul-20 08:24N 23°05' E 113°25'0 0.0
2016-Jul-20 05:30N 23°05' E 113°25'0 0.0
2016-Jul-20 04:24N 23°05' E 113°25'0 0.0
2016-Jul-20 03:30N 23°05' E 113°25'0 0.0
2016-Jul-20 01:30N 23°05' E 113°25'0 0.0
2016-Jul-20 00:18N 23°05' E 113°25'0 0.0
2016-Jul-19 23:12N 23°05' E 113°25'0 0.0
2016-Jul-19 22:24N 23°05' E 113°25'0 0.0
2016-Jul-19 21:12N 23°05' E 113°25'0 0.0
2016-Jul-19 20:24N 23°05' E 113°25'0 0.0
2016-Jul-19 18:30N 23°05' E 113°25'0 0.0
2016-Jul-19 16:30N 23°05' E 113°25'0 0.0
2016-Jul-19 12:30N 23°05' E 113°25'0 0.0
2016-Jul-19 11:24N 23°05' E 113°25'0 0.0
2016-Jul-19 10:24N 23°05' E 113°25'0 0.0
2016-Jul-19 09:17N 23°05' E 113°25'0 0.0
2016-Jul-19 08:17N 23°05' E 113°25'0 0.0
2016-Jul-19 04:23N 23°05' E 113°25'0 0.0
2016-Jul-19 03:29N 23°05' E 113°25'0 0.0
2016-Jul-19 02:29N 23°05' E 113°25'0 0.0
2016-Jul-19 01:23N 23°05' E 113°25'0 0.0
2016-Jul-19 00:23N 23°05' E 113°25'0 0.0
2016-Jul-18 23:23N 23°05' E 113°25'0 0.0
2016-Jul-18 22:11N 23°05' E 113°25'0 0.0
2016-Jul-18 21:29N 23°05' E 113°25'0 0.0
2016-Jul-18 20:23N 23°05' E 113°25'  

Dump ship's entire track history